Location: Tel Aviv
(32.0670°N, 34.7670°E)
Time: 07:09:14
(UTC+02:00)

Courier 1B Rocket - All Passes

Search period start: 29 November 2023 00:00
Search period end: 09 December 2023 00:00
Orbit: 920 x 1201 km, 28.2° (Epoch: 28 November)

Date Brightness Start Highest point End Pass type
(mag) Time Alt. Az. Time Alt. Az. Time Alt. Az.
29 Nov - 11:17:25 10° SSE 11:18:18 10° SSE 11:19:11 10° SE daylight
29 Nov - 13:05:34 10° SW 13:11:02 31° SSE 13:16:26 10° E daylight
29 Nov - 14:57:54 10° WSW 15:04:00 57° S 15:10:12 10° E daylight
29 Nov - 16:51:01 10° W 16:57:11 60° S 17:03:38 10° ESE visible
29 Nov - 18:44:29 10° W 18:50:19 36° SSW 18:56:29 10° SE visible
29 Nov - 20:39:49 10° WSW 20:43:16 14° SSW 20:46:48 10° S visible
30 Nov - 12:05:12 10° SSW 12:10:08 23° SSE 12:14:57 10° ESE daylight
30 Nov - 13:57:00 10° WSW 14:03:01 49° SSE 14:09:02 10° E daylight
30 Nov - 15:50:01 10° W 15:56:09 63° S 16:02:29 10° ESE daylight
30 Nov - 17:43:21 10° W 17:49:18 44° SSW 17:55:34 10° SE visible
30 Nov - 19:37:39 10° WSW 19:42:16 20° SSW 19:47:05 10° SSE visible
01 Dec - 11:05:14 10° SSW 11:09:13 17° SSE 11:13:07 10° ESE daylight
01 Dec - 12:56:09 10° SW 13:02:04 41° SSE 13:07:51 10° E daylight
01 Dec - 14:48:59 10° WSW 14:55:08 62° S 15:01:20 10° E daylight
01 Dec - 16:42:16 10° W 16:48:18 52° S 16:54:34 10° ESE daylight
01 Dec - 18:36:04 10° WSW 18:41:18 27° SSW 18:46:47 10° SSE visible
02 Dec - 10:06:18 10° SSE 10:08:18 11° SSE 10:10:16 10° SE daylight
02 Dec - 11:55:26 10° SW 12:01:07 32° SSE 12:06:36 10° E daylight
02 Dec - 13:47:57 10° WSW 13:54:07 57° S 14:00:14 10° E daylight
02 Dec - 15:41:11 10° W 15:47:18 59° S 15:53:31 10° ESE daylight
02 Dec - 17:34:44 10° W 17:40:21 35° SSW 17:46:10 10° SE visible
02 Dec - 19:30:23 10° SW 19:33:11 13° SSW 19:36:04 10° S visible
03 Dec - 10:54:55 10° SSW 11:00:11 25° SSE 11:05:13 10° ESE daylight
03 Dec - 12:46:56 10° WSW 12:53:08 50° SSE 12:59:09 10° E daylight
03 Dec - 14:40:06 10° W 14:46:17 62° S 14:52:27 10° ESE daylight
03 Dec - 16:33:32 10° W 16:39:24 43° SSW 16:45:23 10° SE daylight
03 Dec - 18:28:01 10° WSW 18:32:15 19° SSW 18:36:38 10° SSE visible
04 Dec - 09:54:45 10° SSW 09:59:13 18° SSE 10:03:30 10° ESE daylight
04 Dec - 11:45:58 10° SW 11:52:09 42° SSE 11:58:02 10° E daylight
04 Dec - 13:38:58 10° WSW 13:45:16 62° S 13:51:25 10° E daylight
04 Dec - 15:32:23 10° W 15:38:26 52° SSW 15:44:30 10° ESE daylight
04 Dec - 17:26:19 10° WSW 17:31:21 25° SSW 17:36:29 10° SSE visible
05 Dec - 08:55:22 10° S 08:58:14 13° SSE 09:01:01 10° SE daylight
05 Dec - 10:45:08 10° SW 10:51:09 34° SSE 10:56:51 10° E daylight
05 Dec - 12:37:50 10° WSW 12:44:14 58° S 12:50:23 10° E daylight
05 Dec - 14:31:14 10° W 14:37:26 58° S 14:43:32 10° ESE daylight
05 Dec - 16:24:55 10° W 16:30:26 33° SSW 16:36:01 10° SE daylight
05 Dec - 18:21:00 10° SW 18:23:11 12° SSW 18:25:23 10° S visible
06 Dec - 09:44:29 10° SSW 09:50:09 26° SSE 09:55:30 10° ESE daylight
06 Dec - 11:36:42 10° WSW 11:43:12 52° SSE 11:49:21 10° E daylight
06 Dec - 13:30:02 10° W 13:36:25 63° S 13:42:34 10° ESE daylight
06 Dec - 15:23:38 10° W 15:29:31 42° SSW 15:35:21 10° SE daylight
06 Dec - 17:18:18 10° WSW 17:22:18 18° SSW 17:26:20 10° SSE visible
07 Dec - 08:44:10 10° SSW 08:49:07 20° SSE 08:53:51 10° ESE daylight
07 Dec - 10:35:38 10° SW 10:42:09 44° SSE 10:48:16 10° E daylight
07 Dec - 12:28:48 10° WSW 12:35:22 63° S 12:41:35 10° E daylight
07 Dec - 14:22:23 10° W 14:28:33 51° SSW 14:34:33 10° ESE daylight
07 Dec - 16:16:29 10° WSW 16:21:25 25° SSW 16:26:22 10° SSE daylight
08 Dec - 07:44:30 10° S 07:48:05 14° SSE 07:51:33 10° ESE daylight
08 Dec - 09:34:41 10° SW 09:41:05 36° SSE 09:47:06 10° E daylight
08 Dec - 11:27:33 10° WSW 11:34:17 60° S 11:40:36 10° E daylight
08 Dec - 13:21:07 10° W 13:27:33 59° S 13:33:41 10° ESE daylight
08 Dec - 15:14:58 10° W 15:20:32 33° SSW 15:26:01 10° SE daylight
08 Dec - 17:11:33 10° SW 17:13:12 11° SSW 17:14:53 10° SSW visible
